Flag Weather past 2 weeks in Fayetteville, North Carolina, U.S.A.

Now
51 °F

Clear.


Feels Like: 49 °F
Forecast: 28 / 57 °F
Wind: 7 mph from Southwest

Location: Fayetteville Regional Airport

Current Time: Nov 20, 2014 at 6:25:11 PM

Latest Report: Nov 20, 2014 at 5:53 PM


Visibility: 10 mi

Pressure: 30.07 "Hg

Humidity: 42%

Dew point: 29 °F

Location of FayettevilleLocation

Historic Weather in Fayetteville — Graph

°F

Fayetteville temperature yesterday

Maximum temperature yesterday: 45 °F (at 2:53 PM)
Minimum temperature yesterday: 18 °F (at 6:53 AM)
Average temperature yesterday: 32 °F

Past Weeks' High & Low Weather Summary

 TemperatureHumidityPressure
High79 °F (Nov 12, 1:53 PM)100% (Nov 11, 10:53 PM)30.45 "Hg (Nov 11, 10:53 PM)
Low18 °F (Nov 19, 6:53 AM)22% (Nov 19, 1:53 PM)29.61 "Hg (Nov 17, 2:53 PM)
Average50 °F67%30.06 "Hg
* Reported Nov 5 4:53 PM — Nov 20 4:53 PM, Fayetteville, Weather by CustomWeather, © 2014

Note: Actual official high and low records may vary slightly from our data, if they occured in-between our weather recording intervals... More about our weather records

Advertising

Fayetteville weather history for previous 24 hours

 ConditionsComfort  
Time TempWeatherWind HumidityBarometerVisibility
4:53 PM
Nov 20
57 °FSunny.10 mph32%30.05 "Hg10 mi
3:53 PM60 °FSunny.15 mph27%30.03 "Hg10 mi
2:53 PM61 °FSunny.18 mph26%30.03 "Hg10 mi
1:53 PM61 °FSunny.16 mph27%30.05 "Hg10 mi
12:53 PM58 °FSunny.12 mph28%30.07 "Hg10 mi
11:53 AM54 °FSunny.12 mph31%30.12 "Hg10 mi
10:53 AM49 °FSunny.12 mph35%30.16 "Hg10 mi
9:53 AM46 °FSunny.9 mph37%30.18 "Hg10 mi
8:53 AM39 °FSunny.13 mph46%30.19 "Hg10 mi
7:53 AM32 °FSunny.9 mph64%30.18 "Hg10 mi
6:53 AM28 °FClear.6 mph72%30.17 "Hg10 mi
5:53 AM29 °FClear.6 mph72%30.16 "Hg10 mi
4:53 AM30 °FClear.7 mph69%30.17 "Hg10 mi
3:53 AM30 °FClear.8 mph75%30.19 "Hg10 mi
2:53 AM31 °FClear.7 mph79%30.22 "Hg10 mi
1:53 AM31 °FClear.6 mph79%30.22 "Hg10 mi
12:53 AM34 °FClear.6 mph73%30.24 "Hg10 mi
11:53 PM
Nov 19
33 °FClear.7 mph72%30.24 "Hg10 mi
10:53 PM33 °FClear.8 mph70%30.25 "Hg10 mi
9:53 PM33 °FClear.7 mph61%30.26 "Hg10 mi
8:53 PM35 °FClear.9 mph50%30.26 "Hg10 mi
7:53 PM35 °FClear.8 mph44%30.26 "Hg10 mi
Weather by CustomWeather, © 2014

See weather overviewHow to use our weather pages